Time,TemperatureF,DewpointF,PressureIn,WindDirection,WindDirectionDegrees,WindSpeedMPH,WindSpeedGustMPH,Humidity,HourlyPrecipIn,Conditions,Clouds,dailyrainin,SoftwareType,DateUTC
2013-03-27 00:00:00,30.8,24.4,30.28,ESE,120,1.0,-999.0,77,0.00,,,0.01,Wunderground v.1.15,2013-03-27 05:00:00,
2013-03-27 00:05:00,30.8,24.4,30.28,ESE,120,1.0,-999.0,77,0.00,,,0.00,Wunderground v.1.15,2013-03-27 05:05:00,
2013-03-27 00:10:00,30.8,24.7,30.28,SE,127,0.0,-999.0,78,0.00,,,0.00,Wunderground v.1.15,2013-03-27 05:10:00,
2013-03-27 00:15:00,30.7,24.3,30.28,South,173,0.0,-999.0,77,0.00,,,0.00,Wunderground v.1.15,2013-03-27 05:15:00,
2013-03-27 00:21:00,30.8,24.7,30.28,SE,140,2.0,-999.0,78,0.00,,,0.00,Wunderground v.1.15,2013-03-27 05:21:00,
2013-03-27 00:26:00,30.7,24.3,30.28,SE,138,1.0,-999.0,77,0.00,,,0.00,Wunderground v.1.15,2013-03-27 05:26:00,
2013-03-27 00:31:00,30.7,24.3,30.28,SE,124,0.0,-999.0,77,0.00,,,0.00,Wunderground v.1.15,2013-03-27 05:31:00,
2013-03-27 00:36:00,30.6,24.6,30.28,SE,139,1.0,-999.0,78,0.00,,,0.00,Wunderground v.1.15,2013-03-27 05:36:00,
2013-03-27 00:41:00,30.6,24.6,30.28,SE,131,0.0,-999.0,78,0.00,,,0.00,Wunderground v.1.15,2013-03-27 05:41:00,
2013-03-27 00:46:00,30.5,24.8,30.29,SE,145,0.0,-999.0,79,0.00,,,0.00,Wunderground v.1.15,2013-03-27 05:46:00,
2013-03-27 00:52:00,30.5,24.5,30.29,SE,138,1.0,-999.0,78,0.00,,,0.00,Wunderground v.1.15,2013-03-27 05:52:00,
2013-03-27 00:57:00,30.6,24.9,30.29,SSE,152,2.0,-999.0,79,0.00,,,0.00,Wunderground v.1.15,2013-03-27 05:57:00,
2013-03-27 01:02:00,30.7,25.3,30.29,SE,129,1.0,-999.0,80,0.00,,,0.00,Wunderground v.1.15,2013-03-27 06:02:00,
2013-03-27 01:08:00,30.7,25.0,30.29,SE,135,3.0,-999.0,79,0.00,,,0.00,Wunderground v.1.15,2013-03-27 06:08:00,
2013-03-27 01:13:00,30.7,25.0,30.29,SSE,156,2.0,-999.0,79,0.00,,,0.00,Wunderground v.1.15,2013-03-27 06:13:00,
2013-03-27 01:18:00,30.7,25.0,30.29,SE,138,3.0,-999.0,79,0.00,,,0.00,Wunderground v.1.15,2013-03-27 06:18:00,
2013-03-27 01:24:00,30.6,24.9,30.29,SE,144,1.0,-999.0,79,0.00,,,0.00,Wunderground v.1.15,2013-03-27 06:24:00,
2013-03-27 01:29:00,30.5,24.8,30.29,SSE,159,1.0,-999.0,79,0.00,,,0.00,Wunderground v.1.15,2013-03-27 06:29:00,
2013-03-27 01:34:00,30.4,24.7,30.29,SSE,155,0.0,-999.0,79,0.00,,,0.00,Wunderground v.1.15,2013-03-27 06:34:00,
2013-03-27 01:39:00,30.1,24.1,30.29,SE,145,0.0,-999.0,78,0.00,,,0.00,Wunderground v.1.15,2013-03-27 06:39:00,
2013-03-27 01:44:00,30.0,24.3,30.29,SE,125,0.0,-999.0,79,0.00,,,0.00,Wunderground v.1.15,2013-03-27 06:44:00,
2013-03-27 01:49:00,29.9,24.2,30.29,SE,144,0.0,-999.0,79,0.00,,,0.00,Wunderground v.1.15,2013-03-27 06:49:00,
2013-03-27 01:54:00,29.9,24.2,30.29,SE,137,0.0,-999.0,79,0.00,,,0.00,Wunderground v.1.15,2013-03-27 06:54:00,
2013-03-27 01:59:00,29.8,24.1,30.29,East,86,0.0,-999.0,79,0.00,,,0.00,Wunderground v.1.15,2013-03-27 06:59:00,
2013-03-27 02:04:00,29.8,24.1,30.30,SE,124,0.0,-999.0,79,0.00,,,0.00,Wunderground v.1.15,2013-03-27 07:04:00,
2013-03-27 02:09:00,29.7,24.3,30.30,SE,124,0.0,-999.0,80,0.00,,,0.00,Wunderground v.1.15,2013-03-27 07:09:00,
2013-03-27 02:14:00,29.6,24.2,30.29,SE,138,0.0,-999.0,80,0.00,,,0.00,Wunderground v.1.15,2013-03-27 07:14:00,
2013-03-27 02:19:00,29.4,23.7,30.29,SE,141,0.0,-999.0,79,0.00,,,0.00,Wunderground v.1.15,2013-03-27 07:19:00,
2013-03-27 02:24:00,29.3,23.6,30.29,SE,127,0.0,-999.0,79,0.00,,,0.00,Wunderground v.1.15,2013-03-27 07:24:00,
2013-03-27 02:29:00,29.2,23.8,30.29,SE,127,0.0,-999.0,80,0.00,,,0.00,Wunderground v.1.15,2013-03-27 07:29:00,
2013-03-27 02:34:00,29.2,23.8,30.28,SE,131,0.0,-999.0,80,0.00,,,0.00,Wunderground v.1.15,2013-03-27 07:34:00,
2013-03-27 02:39:00,29.2,23.8,30.28,SE,128,1.0,-999.0,80,0.00,,,0.00,Wunderground v.1.15,2013-03-27 07:39:00,
2013-03-27 02:44:00,29.2,23.8,30.28,ESE,120,0.0,-999.0,80,0.00,,,0.00,Wunderground v.1.15,2013-03-27 07:44:00,
2013-03-27 02:49:00,29.1,23.7,30.28,SE,141,0.0,-999.0,80,0.00,,,0.00,Wunderground v.1.15,2013-03-27 07:49:00,
2013-03-27 02:54:00,29.1,23.7,30.28,SSE,153,1.0,-999.0,80,0.00,,,0.00,Wunderground v.1.15,2013-03-27 07:54:00,
2013-03-27 02:59:00,29.1,23.4,30.28,SSE,158,1.0,-999.0,79,0.00,,,0.00,Wunderground v.1.15,2013-03-27 07:59:00,
2013-03-27 03:04:00,29.0,23.3,30.28,SE,139,0.0,-999.0,79,0.00,,,0.00,Wunderground v.1.15,2013-03-27 08:04:00,
2013-03-27 03:09:00,29.0,23.3,30.28,SE,143,0.0,-999.0,79,0.00,,,0.00,Wunderground v.1.15,2013-03-27 08:09:00,
2013-03-27 03:14:00,29.0,23.3,30.28,SSE,155,0.0,-999.0,79,0.00,,,0.00,Wunderground v.1.15,2013-03-27 08:14:00,
2013-03-27 03:19:00,28.9,23.2,30.28,ESE,121,0.0,-999.0,79,0.00,,,0.00,Wunderground v.1.15,2013-03-27 08:19:00,
2013-03-27 03:24:00,28.9,23.2,30.28,SE,128,0.0,-999.0,79,0.00,,,0.00,Wunderground v.1.15,2013-03-27 08:24:00,
2013-03-27 03:29:00,28.7,23.3,30.28,SE,135,1.0,-999.0,80,0.00,,,0.00,Wunderground v.1.15,2013-03-27 08:29:00,
2013-03-27 03:34:00,28.5,23.1,30.28,SE,143,2.0,-999.0,80,0.00,,,0.00,Wunderground v.1.15,2013-03-27 08:34:00,
2013-03-27 03:39:00,28.5,23.1,30.28,ESE,121,0.0,-999.0,80,0.00,,,0.00,Wunderground v.1.15,2013-03-27 08:39:00,
2013-03-27 03:44:00,28.4,23.0,30.27,ESE,108,2.0,-999.0,80,0.00,,,0.00,Wunderground v.1.15,2013-03-27 08:44:00,
2013-03-27 03:49:00,28.4,23.0,30.27,ESE,117,0.0,-999.0,80,0.00,,,0.00,Wunderground v.1.15,2013-03-27 08:49:00,
2013-03-27 03:54:00,28.5,23.1,30.27,ESE,111,0.0,-999.0,80,0.00,,,0.00,Wunderground v.1.15,2013-03-27 08:54:00,
2013-03-27 03:59:00,28.6,23.2,30.27,East,84,0.0,-999.0,80,0.00,,,0.00,Wunderground v.1.15,2013-03-27 08:59:00,
2013-03-27 04:04:00,28.7,23.0,30.27,East,96,0.0,-999.0,79,0.00,,,0.00,Wunderground v.1.15,2013-03-27 09:04:00,
2013-03-27 04:09:00,28.8,23.1,30.27,SSE,165,2.0,-999.0,79,0.00,,,0.00,Wunderground v.1.15,2013-03-27 09:09:00,
2013-03-27 04:14:00,28.8,23.1,30.27,NNE,28,0.0,-999.0,79,0.00,,,0.00,Wunderground v.1.15,2013-03-27 09:14:00,
2013-03-27 04:19:00,28.8,23.1,30.27,East,82,0.0,-999.0,79,0.00,,,0.00,Wunderground v.1.15,2013-03-27 09:19:00,
2013-03-27 04:24:00,28.8,23.1,30.27,ESE,103,0.0,-999.0,79,0.00,,,0.00,Wunderground v.1.15,2013-03-27 09:24:00,
2013-03-27 04:29:00,28.8,23.1,30.27,ESE,103,0.0,-999.0,79,0.00,,,0.00,Wunderground v.1.15,2013-03-27 09:29:00,
2013-03-27 04:34:00,28.8,23.1,30.27,East,98,0.0,-999.0,79,0.00,,,0.00,Wunderground v.1.15,2013-03-27 09:34:00,
2013-03-27 04:39:00,28.8,23.1,30.26,South,191,2.0,-999.0,79,0.00,,,0.00,Wunderground v.1.15,2013-03-27 09:39:00,
2013-03-27 04:44:00,28.9,23.2,30.26,ESE,103,0.0,-999.0,79,0.00,,,0.00,Wunderground v.1.15,2013-03-27 09:44:00,
2013-03-27 04:49:00,29.0,22.7,30.26,SE,124,0.0,-999.0,77,0.00,,,0.00,Wunderground v.1.15,2013-03-27 09:49:00,
2013-03-27 04:54:00,29.0,22.7,30.26,ESE,112,0.0,-999.0,77,0.00,,,0.00,Wunderground v.1.15,2013-03-27 09:54:00,
2013-03-27 05:00:00,28.9,22.6,30.26,SE,141,1.0,-999.0,77,0.00,,,0.00,Wunderground v.1.15,2013-03-27 10:00:00,
2013-03-27 05:05:00,28.9,22.6,30.26,SSE,159,0.0,-999.0,77,0.00,,,0.00,Wunderground v.1.15,2013-03-27 10:05:00,
2013-03-27 05:10:00,28.7,22.7,30.26,ESE,117,0.0,-999.0,78,0.00,,,0.00,Wunderground v.1.15,2013-03-27 10:10:00,
2013-03-27 05:15:00,28.6,22.6,30.26,SE,136,0.0,-999.0,78,0.00,,,0.00,Wunderground v.1.15,2013-03-27 10:15:00,
2013-03-27 05:20:00,28.5,22.5,30.26,ESE,110,1.0,-999.0,78,0.00,,,0.00,Wunderground v.1.15,2013-03-27 10:20:00,
2013-03-27 05:25:00,28.4,22.7,30.26,SE,128,0.0,-999.0,79,0.00,,,0.00,Wunderground v.1.15,2013-03-27 10:25:00,
2013-03-27 05:30:00,28.3,22.6,30.26,SE,129,0.0,-999.0,79,0.00,,,0.00,Wunderground v.1.15,2013-03-27 10:30:00,
2013-03-27 05:35:00,28.1,22.4,30.26,ESE,105,0.0,-999.0,79,0.00,,,0.00,Wunderground v.1.15,2013-03-27 10:35:00,
2013-03-27 05:40:00,28.0,22.3,30.26,SSE,155,0.0,-999.0,79,0.00,,,0.00,Wunderground v.1.15,2013-03-27 10:40:00,
2013-03-27 05:45:00,27.9,22.5,30.26,SSE,162,0.0,-999.0,80,0.00,,,0.00,Wunderground v.1.15,2013-03-27 10:45:00,
2013-03-27 05:50:00,27.8,22.4,30.26,ESE,103,0.0,-999.0,80,0.00,,,0.00,Wunderground v.1.15,2013-03-27 10:50:00,
2013-03-27 05:55:00,27.7,22.3,30.26,ESE,117,0.0,-999.0,80,0.00,,,0.00,Wunderground v.1.15,2013-03-27 10:55:00,
2013-03-27 06:00:00,27.4,22.3,30.26,ESE,117,0.0,-999.0,81,0.00,,,0.00,Wunderground v.1.15,2013-03-27 11:00:00,
2013-03-27 06:05:00,27.3,22.2,30.26,East,90,1.0,-999.0,81,0.00,,,0.00,Wunderground v.1.15,2013-03-27 11:05:00,
2013-03-27 06:10:00,27.2,21.8,30.27,East,92,0.0,-999.0,80,0.00,,,0.00,Wunderground v.1.15,2013-03-27 11:10:00,
2013-03-27 06:15:00,27.1,21.7,30.27,East,86,0.0,-999.0,80,0.00,,,0.00,Wunderground v.1.15,2013-03-27 11:15:00,
2013-03-27 06:20:00,27.1,22.0,30.27,East,92,0.0,-999.0,81,0.00,,,0.00,Wunderground v.1.15,2013-03-27 11:20:00,
2013-03-27 06:25:00,27.0,21.9,30.27,ENE,65,1.0,-999.0,81,0.00,,,0.00,Wunderground v.1.15,2013-03-27 11:25:00,
2013-03-27 06:30:00,27.0,21.9,30.27,East,79,0.0,-999.0,81,0.00,,,0.00,Wunderground v.1.15,2013-03-27 11:30:00,
2013-03-27 06:35:00,26.9,21.8,30.27,ESE,103,0.0,-999.0,81,0.00,,,0.00,Wunderground v.1.15,2013-03-27 11:35:00,
2013-03-27 06:40:00,26.8,21.8,30.27,ESE,103,0.0,-999.0,81,0.00,,,0.00,Wunderground v.1.15,2013-03-27 11:40:00,
2013-03-27 06:45:00,26.7,21.7,30.27,East,100,0.0,-999.0,81,0.00,,,0.00,Wunderground v.1.15,2013-03-27 11:45:00,
2013-03-27 06:50:00,26.3,21.3,30.27,East,101,0.0,-999.0,81,0.00,,,0.00,Wunderground v.1.15,2013-03-27 11:50:00,
2013-03-27 06:55:00,26.0,21.3,30.27,East,100,0.0,-999.0,82,0.00,,,0.00,Wunderground v.1.15,2013-03-27 11:55:00,
2013-03-27 07:00:00,25.6,21.2,30.27,East,101,0.0,-999.0,83,0.00,,,0.00,Wunderground v.1.15,2013-03-27 12:00:00,
2013-03-27 07:05:00,25.3,21.1,30.27,East,100,0.0,-999.0,84,0.00,,,0.00,Wunderground v.1.15,2013-03-27 12:05:00,
2013-03-27 07:10:00,25.2,21.0,30.27,East,101,0.0,-999.0,84,0.00,,,0.00,Wunderground v.1.15,2013-03-27 12:10:00,
2013-03-27 07:15:00,25.1,20.9,30.27,East,101,0.0,-999.0,84,0.00,,,0.00,Wunderground v.1.15,2013-03-27 12:15:00,
2013-03-27 07:20:00,25.0,20.8,30.27,ESE,102,0.0,-999.0,84,0.00,,,0.00,Wunderground v.1.15,2013-03-27 12:20:00,
2013-03-27 07:25:00,25.1,21.2,30.27,East,101,0.0,-999.0,85,0.00,,,0.00,Wunderground v.1.15,2013-03-27 12:25:00,
2013-03-27 07:30:00,25.5,21.9,30.27,SSE,160,0.0,-999.0,86,0.00,,,0.00,Wunderground v.1.15,2013-03-27 12:30:00,
2013-03-27 07:35:00,25.8,21.9,30.27,SE,138,0.0,-999.0,85,0.00,,,0.00,Wunderground v.1.15,2013-03-27 12:35:00,
2013-03-27 07:40:00,26.1,22.2,30.28,SE,146,0.0,-999.0,85,0.00,,,0.00,Wunderground v.1.15,2013-03-27 12:40:00,
2013-03-27 07:45:00,26.3,22.1,30.28,SE,129,0.0,-999.0,84,0.00,,,0.00,Wunderground v.1.15,2013-03-27 12:45:00,
2013-03-27 07:50:00,26.6,22.4,30.28,East,91,1.0,-999.0,84,0.00,,,0.00,Wunderground v.1.15,2013-03-27 12:50:00,
2013-03-27 07:55:00,26.8,22.3,30.28,SE,127,0.0,-999.0,83,0.00,,,0.00,Wunderground v.1.15,2013-03-27 12:55:00,
2013-03-27 08:00:00,27.0,22.2,30.28,East,89,0.0,-999.0,82,0.00,,,0.00,Wunderground v.1.15,2013-03-27 13:00:00,
2013-03-27 08:05:00,27.2,22.4,30.28,ESE,123,0.0,-999.0,82,0.00,,,0.00,Wunderground v.1.15,2013-03-27 13:05:00,
2013-03-27 08:10:00,27.4,22.3,30.28,ESE,114,0.0,-999.0,81,0.00,,,0.00,Wunderground v.1.15,2013-03-27 13:10:00,
2013-03-27 08:15:00,27.7,22.6,30.28,East,94,1.0,-999.0,81,0.00,,,0.00,Wunderground v.1.15,2013-03-27 13:15:00,
2013-03-27 08:20:00,27.9,22.5,30.28,SE,127,0.0,-999.0,80,0.00,,,0.00,Wunderground v.1.15,2013-03-27 13:20:00,
2013-03-27 08:25:00,28.3,22.6,30.28,ESE,118,2.0,-999.0,79,0.00,,,0.00,Wunderground v.1.15,2013-03-27 13:25:00,
2013-03-27 08:30:00,28.8,22.8,30.28,East,91,2.0,-999.0,78,0.00,,,0.00,Wunderground v.1.15,2013-03-27 13:30:00,
2013-03-27 08:35:00,29.5,23.2,30.28,East,93,1.0,-999.0,77,0.00,,,0.00,Wunderground v.1.15,2013-03-27 13:35:00,
2013-03-27 08:40:00,30.1,23.4,30.28,ESE,108,0.0,-999.0,76,0.00,,,0.00,Wunderground v.1.15,2013-03-27 13:40:00,
2013-03-27 08:45:00,30.6,23.6,30.28,East,92,1.0,-999.0,75,0.00,,,0.00,Wunderground v.1.15,2013-03-27 13:45:00,
2013-03-27 08:50:00,30.9,23.6,30.28,ESE,120,1.0,-999.0,74,0.00,,,0.00,Wunderground v.1.15,2013-03-27 13:50:00,
2013-03-27 08:55:00,31.1,23.5,30.27,ENE,75,0.0,-999.0,73,0.00,,,0.00,Wunderground v.1.15,2013-03-27 13:55:00,
2013-03-27 09:00:00,31.6,23.9,30.28,SE,145,2.0,-999.0,73,0.00,,,0.00,Wunderground v.1.15,2013-03-27 14:00:00,
2013-03-27 09:05:00,32.2,23.8,30.28,East,100,4.0,-999.0,71,0.00,,,0.00,Wunderground v.1.15,2013-03-27 14:05:00,
2013-03-27 09:10:00,32.5,23.8,30.28,ENE,77,0.0,-999.0,70,0.00,,,0.00,Wunderground v.1.15,2013-03-27 14:10:00,
2013-03-27 09:15:00,33.2,24.1,30.28,ESE,114,1.0,-999.0,69,0.00,,,0.00,Wunderground v.1.15,2013-03-27 14:15:00,
2013-03-27 09:20:00,33.5,24.1,30.28,SE,127,1.0,-999.0,68,0.00,,,0.00,Wunderground v.1.15,2013-03-27 14:20:00,
2013-03-27 09:25:00,34.0,24.2,30.28,East,79,3.0,-999.0,67,0.00,,,0.00,Wunderground v.1.15,2013-03-27 14:25:00,
2013-03-27 09:30:00,34.2,24.0,30.28,ESE,117,0.0,-999.0,66,0.00,,,0.00,Wunderground v.1.15,2013-03-27 14:30:00,
2013-03-27 09:35:00,34.5,23.9,30.28,SSE,153,0.0,-999.0,65,0.00,,,0.00,Wunderground v.1.15,2013-03-27 14:35:00,
2013-03-27 09:40:00,35.0,24.8,30.29,East,83,4.0,-999.0,66,0.00,,,0.00,Wunderground v.1.15,2013-03-27 14:40:00,
2013-03-27 09:45:00,35.2,24.6,30.29,ESE,114,0.0,-999.0,65,0.00,,,0.00,Wunderground v.1.15,2013-03-27 14:45:00,
2013-03-27 09:50:00,35.4,24.8,30.29,SE,141,0.0,-999.0,65,0.00,,,0.00,Wunderground v.1.15,2013-03-27 14:50:00,
2013-03-27 09:55:00,35.4,24.8,30.28,NE,37,3.0,-999.0,65,0.00,,,0.00,Wunderground v.1.15,2013-03-27 14:55:00,
2013-03-27 10:00:00,35.7,24.7,30.28,East,86,1.0,-999.0,64,0.00,,,0.00,Wunderground v.1.15,2013-03-27 15:00:00,
2013-03-27 10:05:00,36.1,24.7,30.28,East,98,1.0,-999.0,63,0.00,,,0.00,Wunderground v.1.15,2013-03-27 15:05:00,
2013-03-27 10:10:00,36.2,24.8,30.28,SSE,155,2.0,-999.0,63,0.00,,,0.00,Wunderground v.1.15,2013-03-27 15:10:00,
2013-03-27 10:15:00,36.4,25.0,30.28,East,94,4.0,-999.0,63,0.00,,,0.00,Wunderground v.1.15,2013-03-27 15:15:00,
2013-03-27 10:20:00,36.8,25.4,30.28,ESE,102,3.0,-999.0,63,0.00,,,0.00,Wunderground v.1.15,2013-03-27 15:20:00,
2013-03-27 10:25:00,36.9,24.7,30.28,ESE,113,4.0,-999.0,61,0.00,,,0.00,Wunderground v.1.15,2013-03-27 15:25:00,
2013-03-27 10:30:00,37.3,25.1,30.28,SE,124,1.0,-999.0,61,0.00,,,0.00,Wunderground v.1.15,2013-03-27 15:30:00,
2013-03-27 10:35:00,37.5,24.9,30.28,SE,125,0.0,-999.0,60,0.00,,,0.00,Wunderground v.1.15,2013-03-27 15:35:00,
2013-03-27 10:40:00,38.0,25.3,30.28,East,83,4.0,-999.0,60,0.00,,,0.00,Wunderground v.1.15,2013-03-27 15:40:00,
2013-03-27 10:45:00,38.5,25.4,30.28,ENE,63,4.0,-999.0,59,0.00,,,0.00,Wunderground v.1.15,2013-03-27 15:45:00,
2013-03-27 10:50:00,38.6,25.5,30.28,SE,145,0.0,-999.0,59,0.00,,,0.00,Wunderground v.1.15,2013-03-27 15:50:00,
2013-03-27 10:55:00,38.8,25.3,30.28,East,93,0.0,-999.0,58,0.00,,,0.00,Wunderground v.1.15,2013-03-27 15:55:00,
2013-03-27 11:00:00,38.9,24.5,30.28,East,85,2.0,-999.0,56,0.00,,,0.00,Wunderground v.1.15,2013-03-27 16:00:00,
2013-03-27 11:05:00,39.1,25.1,30.28,ESE,121,0.0,-999.0,57,0.00,,,0.00,Wunderground v.1.15,2013-03-27 16:05:00,
2013-03-27 11:10:00,39.1,25.1,30.27,ENE,69,3.0,-999.0,57,0.00,,,0.00,Wunderground v.1.15,2013-03-27 16:10:00,
2013-03-27 11:15:00,39.2,25.6,30.27,ESE,110,0.0,-999.0,58,0.00,,,0.00,Wunderground v.1.15,2013-03-27 16:15:00,
2013-03-27 11:20:00,39.5,25.1,30.27,East,88,2.0,-999.0,56,0.00,,,0.00,Wunderground v.1.15,2013-03-27 16:20:00,
2013-03-27 11:25:00,39.6,25.6,30.27,ESE,117,1.0,-999.0,57,0.00,,,0.00,Wunderground v.1.15,2013-03-27 16:25:00,
2013-03-27 11:30:00,39.6,25.6,30.27,ESE,113,0.0,-999.0,57,0.00,,,0.00,Wunderground v.1.15,2013-03-27 16:30:00,
2013-03-27 11:35:00,39.9,26.3,30.27,East,87,1.0,-999.0,58,0.00,,,0.00,Wunderground v.1.15,2013-03-27 16:35:00,
2013-03-27 11:40:00,39.8,25.8,30.27,ESE,113,0.0,-999.0,57,0.00,,,0.00,Wunderground v.1.15,2013-03-27 16:40:00,
2013-03-27 11:45:00,40.0,26.0,30.27,ESE,114,2.0,-999.0,57,0.00,,,0.00,Wunderground v.1.15,2013-03-27 16:45:00,
2013-03-27 11:50:00,39.9,25.5,30.27,ESE,105,2.0,-999.0,56,0.00,,,0.00,Wunderground v.1.15,2013-03-27 16:50:00,
2013-03-27 11:55:00,39.9,25.9,30.27,SE,140,0.0,-999.0,57,0.00,,,0.00,Wunderground v.1.15,2013-03-27 16:55:00,
2013-03-27 12:00:00,39.8,25.8,30.26,SE,143,1.0,-999.0,57,0.00,,,0.00,Wunderground v.1.15,2013-03-27 17:00:00,
2013-03-27 12:05:00,39.7,25.7,30.27,SE,124,2.0,-999.0,57,0.00,,,0.00,Wunderground v.1.15,2013-03-27 17:05:00,
2013-03-27 12:10:00,39.7,25.7,30.27,ESE,118,1.0,-999.0,57,0.00,,,0.00,Wunderground v.1.15,2013-03-27 17:10:00,
2013-03-27 12:15:00,39.9,26.3,30.26,ESE,113,1.0,-999.0,58,0.00,,,0.00,Wunderground v.1.15,2013-03-27 17:15:00,
2013-03-27 12:20:00,40.1,26.1,30.26,East,90,1.0,-999.0,57,0.00,,,0.00,Wunderground v.1.15,2013-03-27 17:20:00,
2013-03-27 12:25:00,40.1,25.6,30.26,SE,131,0.0,-999.0,56,0.00,,,0.00,Wunderground v.1.15,2013-03-27 17:25:00,
2013-03-27 12:30:00,40.3,25.8,30.26,ESE,113,2.0,-999.0,56,0.00,,,0.00,Wunderground v.1.15,2013-03-27 17:30:00,
2013-03-27 12:35:00,40.4,25.9,30.26,ESE,120,1.0,-999.0,56,0.00,,,0.00,Wunderground v.1.15,2013-03-27 17:35:00,
2013-03-27 12:40:00,40.6,26.1,30.26,ESE,110,1.0,-999.0,56,0.00,,,0.00,Wunderground v.1.15,2013-03-27 17:40:00,
2013-03-27 12:45:00,40.7,26.2,30.26,SE,145,1.0,-999.0,56,0.00,,,0.00,Wunderground v.1.15,2013-03-27 17:45:00,
2013-03-27 12:50:00,40.9,25.5,30.26,East,86,4.0,-999.0,54,0.00,,,0.00,Wunderground v.1.15,2013-03-27 17:50:00,
2013-03-27 12:55:00,40.9,25.5,30.26,SSE,148,2.0,-999.0,54,0.00,,,0.00,Wunderground v.1.15,2013-03-27 17:55:00,
2013-03-27 13:00:00,41.0,26.1,30.26,ESE,113,0.0,-999.0,55,0.00,,,0.00,Wunderground v.1.15,2013-03-27 18:00:00,
2013-03-27 13:05:00,41.5,27.0,30.26,ESE,112,5.0,-999.0,56,0.00,,,0.00,Wunderground v.1.15,2013-03-27 18:05:00,
2013-03-27 13:10:00,41.9,26.9,30.25,ESE,103,2.0,-999.0,55,0.00,,,0.00,Wunderground v.1.15,2013-03-27 18:10:00,
2013-03-27 13:15:00,42.6,27.5,30.25,ENE,77,6.0,-999.0,55,0.00,,,0.00,Wunderground v.1.15,2013-03-27 18:15:00,
2013-03-27 13:20:00,43.1,28.0,30.25,East,93,0.0,-999.0,55,0.00,,,0.00,Wunderground v.1.15,2013-03-27 18:20:00,
2013-03-27 13:25:00,43.2,27.2,30.24,East,89,2.0,-999.0,53,0.00,,,0.00,Wunderground v.1.15,2013-03-27 18:25:00,
2013-03-27 13:30:00,43.9,28.8,30.24,SE,143,2.0,-999.0,55,0.00,,,0.00,Wunderground v.1.15,2013-03-27 18:30:00,
2013-03-27 13:35:00,44.7,29.5,30.24,ESE,112,2.0,-999.0,55,0.00,,,0.00,Wunderground v.1.15,2013-03-27 18:35:00,
2013-03-27 13:40:00,44.6,28.0,30.24,ENE,68,6.0,-999.0,52,0.00,,,0.00,Wunderground v.1.15,2013-03-27 18:40:00,
2013-03-27 13:45:00,44.4,28.3,30.23,East,101,0.0,-999.0,53,0.00,,,0.00,Wunderground v.1.15,2013-03-27 18:45:00,
2013-03-27 13:50:00,44.9,29.2,30.23,SSE,147,2.0,-999.0,54,0.00,,,0.00,Wunderground v.1.15,2013-03-27 18:50:00,
2013-03-27 13:55:00,45.6,28.5,30.23,WNW,291,3.0,-999.0,51,0.00,,,0.00,Wunderground v.1.15,2013-03-27 18:55:00,
2013-03-27 14:00:00,46.0,28.9,30.23,ESE,109,3.0,-999.0,51,0.00,,,0.00,Wunderground v.1.15,2013-03-27 19:00:00,
2013-03-27 14:05:00,46.4,28.8,30.23,ENE,75,4.0,-999.0,50,0.00,,,0.00,Wunderground v.1.15,2013-03-27 19:05:00,
2013-03-27 14:10:00,46.7,29.5,30.22,SSW,193,2.0,-999.0,51,0.00,,,0.00,Wunderground v.1.15,2013-03-27 19:10:00,
2013-03-27 14:15:00,46.9,29.2,30.22,ESE,123,0.0,-999.0,50,0.00,,,0.00,Wunderground v.1.15,2013-03-27 19:15:00,
2013-03-27 14:20:00,47.3,29.1,30.22,ESE,113,0.0,-999.0,49,0.00,,,0.00,Wunderground v.1.15,2013-03-27 19:20:00,
2013-03-27 14:25:00,47.8,29.5,30.22,East,94,2.0,-999.0,49,0.00,,,0.00,Wunderground v.1.15,2013-03-27 19:25:00,
2013-03-27 14:30:00,48.2,29.4,30.21,ENE,63,0.0,-999.0,48,0.00,,,0.00,Wunderground v.1.15,2013-03-27 19:30:00,
2013-03-27 14:35:00,48.7,29.9,30.21,East,93,3.0,-999.0,48,0.00,,,0.00,Wunderground v.1.15,2013-03-27 19:35:00,
2013-03-27 14:40:00,49.1,30.2,30.21,ENE,77,7.0,-999.0,48,0.00,,,0.00,Wunderground v.1.15,2013-03-27 19:40:00,
2013-03-27 14:45:00,49.2,30.3,30.20,ESE,106,3.0,-999.0,48,0.00,,,0.00,Wunderground v.1.15,2013-03-27 19:45:00,
2013-03-27 14:50:00,49.7,29.7,30.20,SSE,147,4.0,-999.0,46,0.00,,,0.00,Wunderground v.1.15,2013-03-27 19:50:00,
2013-03-27 14:55:00,49.5,29.6,30.20,SE,145,7.0,-999.0,46,0.00,,,0.00,Wunderground v.1.15,2013-03-27 19:55:00,
2013-03-27 15:00:00,49.5,29.6,30.20,ESE,115,1.0,-999.0,46,0.00,,,0.00,Wunderground v.1.15,2013-03-27 20:00:00,
2013-03-27 15:05:00,49.9,30.5,30.20,East,90,2.0,-999.0,47,0.00,,,0.00,Wunderground v.1.15,2013-03-27 20:05:00,
2013-03-27 15:10:00,50.3,29.7,30.19,ESE,108,2.0,-999.0,45,0.00,,,0.00,Wunderground v.1.15,2013-03-27 20:10:00,
2013-03-27 15:15:00,50.7,30.7,30.19,East,91,0.0,-999.0,46,0.00,,,0.00,Wunderground v.1.15,2013-03-27 20:15:00,
2013-03-27 15:20:00,50.9,29.7,30.19,SSE,147,6.0,-999.0,44,0.00,,,0.00,Wunderground v.1.15,2013-03-27 20:20:00,
2013-03-27 15:25:00,50.3,29.7,30.19,SE,143,2.0,-999.0,45,0.00,,,0.00,Wunderground v.1.15,2013-03-27 20:25:00,
2013-03-27 15:30:00,50.1,30.1,30.19,ESE,108,0.0,-999.0,46,0.00,,,0.00,Wunderground v.1.15,2013-03-27 20:30:00,
2013-03-27 15:35:00,50.1,30.1,30.19,ESE,117,2.0,-999.0,46,0.00,,,0.00,Wunderground v.1.15,2013-03-27 20:35:00,
2013-03-27 15:40:00,50.1,29.6,30.19,ESE,108,2.0,-999.0,45,0.00,,,0.00,Wunderground v.1.15,2013-03-27 20:40:00,
2013-03-27 15:45:00,50.3,30.8,30.19,ESE,103,0.0,-999.0,47,0.00,,,0.00,Wunderground v.1.15,2013-03-27 20:45:00,
2013-03-27 15:50:00,50.9,30.3,30.19,East,93,1.0,-999.0,45,0.00,,,0.00,Wunderground v.1.15,2013-03-27 20:50:00,
2013-03-27 15:55:00,51.2,30.6,30.19,ESE,113,1.0,-999.0,45,0.00,,,0.00,Wunderground v.1.15,2013-03-27 20:55:00,
2013-03-27 16:00:00,51.6,31.5,30.19,SE,135,2.0,-999.0,46,0.00,,,0.00,Wunderground v.1.15,2013-03-27 21:00:00,
2013-03-27 16:05:00,51.3,30.7,30.19,East,98,4.0,-999.0,45,0.00,,,0.00,Wunderground v.1.15,2013-03-27 21:05:00,
2013-03-27 16:10:00,51.4,30.7,30.18,SE,134,0.0,-999.0,45,0.00,,,0.00,Wunderground v.1.15,2013-03-27 21:10:00,
2013-03-27 16:15:00,51.6,32.0,30.18,SSE,158,4.0,-999.0,47,0.00,,,0.00,Wunderground v.1.15,2013-03-27 21:15:00,
2013-03-27 16:20:00,51.2,31.6,30.18,SE,138,3.0,-999.0,47,0.00,,,0.00,Wunderground v.1.15,2013-03-27 21:20:00,
2013-03-27 16:25:00,51.3,31.2,30.18,ESE,114,1.0,-999.0,46,0.00,,,0.00,Wunderground v.1.15,2013-03-27 21:25:00,
2013-03-27 16:30:00,51.9,31.7,30.18,ESE,108,4.0,-999.0,46,0.00,,,0.00,Wunderground v.1.15,2013-03-27 21:30:00,
2013-03-27 16:35:00,52.0,32.4,30.18,SE,145,1.0,-999.0,47,0.00,,,0.00,Wunderground v.1.15,2013-03-27 21:35:00,
2013-03-27 16:40:00,52.4,31.7,30.18,ESE,122,5.0,-999.0,45,0.00,,,0.00,Wunderground v.1.15,2013-03-27 21:40:00,
2013-03-27 16:45:00,52.3,32.1,30.18,SSE,157,4.0,-999.0,46,0.00,,,0.00,Wunderground v.1.15,2013-03-27 21:45:00,
2013-03-27 16:50:00,51.7,31.0,30.18,ESE,108,4.0,-999.0,45,0.00,,,0.00,Wunderground v.1.15,2013-03-27 21:50:00,
2013-03-27 16:55:00,52.1,31.4,30.18,ESE,106,2.0,-999.0,45,0.00,,,0.00,Wunderground v.1.15,2013-03-27 21:55:00,
2013-03-27 17:00:00,52.6,31.8,30.18,SSE,151,4.0,-999.0,45,0.00,,,0.00,Wunderground v.1.15,2013-03-27 22:00:00,
2013-03-27 17:05:00,52.4,31.7,30.18,East,87,4.0,-999.0,45,0.00,,,0.00,Wunderground v.1.15,2013-03-27 22:05:00,
2013-03-27 17:10:00,52.3,31.6,30.18,ENE,65,3.0,-999.0,45,0.00,,,0.00,Wunderground v.1.15,2013-03-27 22:10:00,
2013-03-27 17:15:00,52.1,31.9,30.18,ESE,118,2.0,-999.0,46,0.00,,,0.00,Wunderground v.1.15,2013-03-27 22:15:00,
2013-03-27 17:20:00,52.4,31.7,30.18,ENE,77,5.0,-999.0,45,0.00,,,0.00,Wunderground v.1.15,2013-03-27 22:20:00,
2013-03-27 17:25:00,52.7,31.9,30.18,East,98,2.0,-999.0,45,0.00,,,0.00,Wunderground v.1.15,2013-03-27 22:25:00,
2013-03-27 17:30:00,52.8,32.6,30.18,East,100,2.0,-999.0,46,0.00,,,0.00,Wunderground v.1.15,2013-03-27 22:30:00,
2013-03-27 17:35:00,52.7,31.9,30.18,ESE,110,3.0,-999.0,45,0.00,,,0.00,Wunderground v.1.15,2013-03-27 22:35:00,
2013-03-27 17:40:00,52.6,31.8,30.18,SE,143,3.0,-999.0,45,0.00,,,0.00,Wunderground v.1.15,2013-03-27 22:40:00,
2013-03-27 17:45:00,52.8,32.6,30.18,SE,124,2.0,-999.0,46,0.00,,,0.00,Wunderground v.1.15,2013-03-27 22:45:00,
2013-03-27 17:50:00,52.6,31.3,30.18,East,100,6.0,-999.0,44,0.00,,,0.00,Wunderground v.1.15,2013-03-27 22:50:00,
2013-03-27 17:55:00,52.4,31.1,30.18,ESE,113,4.0,-999.0,44,0.00,,,0.00,Wunderground v.1.15,2013-03-27 22:55:00,
2013-03-27 18:00:00,51.9,31.7,30.18,East,91,3.0,-999.0,46,0.00,,,0.00,Wunderground v.1.15,2013-03-27 23:00:00,
2013-03-27 18:05:00,51.9,31.2,30.18,SSE,149,2.0,-999.0,45,0.00,,,0.00,Wunderground v.1.15,2013-03-27 23:05:00,
2013-03-27 18:10:00,51.9,32.3,30.18,ESE,117,2.0,-999.0,47,0.00,,,0.00,Wunderground v.1.15,2013-03-27 23:10:00,
2013-03-27 18:15:00,52.0,31.8,30.18,East,79,2.0,-999.0,46,0.00,,,0.00,Wunderground v.1.15,2013-03-27 23:15:00,
2013-03-27 18:20:00,51.8,32.2,30.18,SE,136,6.0,-999.0,47,0.00,,,0.00,Wunderground v.1.15,2013-03-27 23:20:00,
2013-03-27 18:25:00,51.5,31.9,30.18,ESE,103,1.0,-999.0,47,0.00,,,0.00,Wunderground v.1.15,2013-03-27 23:25:00,
2013-03-27 18:30:00,51.2,32.2,30.18,ESE,118,0.0,-999.0,48,0.00,,,0.00,Wunderground v.1.15,2013-03-27 23:30:00,
2013-03-27 18:35:00,50.9,31.9,30.18,ESE,113,2.0,-999.0,48,0.00,,,0.00,Wunderground v.1.15,2013-03-27 23:35:00,
2013-03-27 18:40:00,50.7,32.2,30.19,SE,128,1.0,-999.0,49,0.00,,,0.00,Wunderground v.1.15,2013-03-27 23:40:00,
2013-03-27 18:45:00,50.5,32.0,30.19,SE,124,0.0,-999.0,49,0.00,,,0.00,Wunderground v.1.15,2013-03-27 23:45:00,
2013-03-27 18:50:00,49.9,32.0,30.19,South,184,2.0,-999.0,50,0.00,,,0.00,Wunderground v.1.15,2013-03-27 23:50:00,
2013-03-27 18:55:00,49.5,32.6,30.19,ESE,110,0.0,-999.0,52,0.00,,,0.00,Wunderground v.1.15,2013-03-27 23:55:00,
2013-03-27 19:00:00,49.2,32.3,30.19,East,98,2.0,-999.0,52,0.00,,,0.00,Wunderground v.1.15,2013-03-28 00:00:00,
2013-03-27 19:05:00,48.9,32.5,30.19,ESE,114,0.0,-999.0,53,0.00,,,0.00,Wunderground v.1.15,2013-03-28 00:05:00,
2013-03-27 19:10:00,48.6,32.2,30.19,SE,128,0.0,-999.0,53,0.00,,,0.00,Wunderground v.1.15,2013-03-28 00:10:00,
2013-03-27 19:15:00,48.3,32.4,30.19,East,95,0.0,-999.0,54,0.00,,,0.00,Wunderground v.1.15,2013-03-28 00:15:00,
2013-03-27 19:20:00,48.0,32.1,30.19,SE,143,1.0,-999.0,54,0.00,,,0.00,Wunderground v.1.15,2013-03-28 00:20:00,
2013-03-27 19:25:00,47.7,32.3,30.19,ESE,113,0.0,-999.0,55,0.00,,,0.00,Wunderground v.1.15,2013-03-28 00:25:00,
2013-03-27 19:30:00,47.4,32.5,30.19,SE,124,0.0,-999.0,56,0.00,,,0.00,Wunderground v.1.15,2013-03-28 00:30:00,
2013-03-27 19:35:00,47.2,32.3,30.19,ESE,113,0.0,-999.0,56,0.00,,,0.00,Wunderground v.1.15,2013-03-28 00:35:00,
2013-03-27 19:40:00,46.9,32.4,30.19,SE,129,0.0,-999.0,57,0.00,,,0.00,Wunderground v.1.15,2013-03-28 00:40:00,
2013-03-27 19:45:00,46.7,32.3,30.19,ESE,113,1.0,-999.0,57,0.00,,,0.00,Wunderground v.1.15,2013-03-28 00:45:00,
2013-03-27 19:50:00,46.4,32.4,30.20,ENE,77,1.0,-999.0,58,0.00,,,0.00,Wunderground v.1.15,2013-03-28 00:50:00,
2013-03-27 19:55:00,46.2,32.7,30.20,ESE,106,1.0,-999.0,59,0.00,,,0.00,Wunderground v.1.15,2013-03-28 00:55:00,
2013-03-27 20:00:00,46.0,32.5,30.20,ESE,123,0.0,-999.0,59,0.00,,,0.00,Wunderground v.1.15,2013-03-28 01:00:00,
2013-03-27 20:05:00,45.8,32.7,30.20,SE,124,1.0,-999.0,60,0.00,,,0.00,Wunderground v.1.15,2013-03-28 01:05:00,
2013-03-27 20:10:00,45.6,32.5,30.20,East,86,0.0,-999.0,60,0.00,,,0.00,Wunderground v.1.15,2013-03-28 01:10:00,
2013-03-27 20:15:00,45.3,32.6,30.20,ESE,110,0.0,-999.0,61,0.00,,,0.00,Wunderground v.1.15,2013-03-28 01:15:00,
2013-03-27 20:20:00,45.1,32.4,30.20,East,89,1.0,-999.0,61,0.00,,,0.00,Wunderground v.1.15,2013-03-28 01:20:00,
2013-03-27 20:25:00,44.9,32.7,30.20,ESE,121,1.0,-999.0,62,0.00,,,0.00,Wunderground v.1.15,2013-03-28 01:25:00,
2013-03-27 20:30:00,44.6,32.8,30.20,ENE,67,1.0,-999.0,63,0.00,,,0.00,Wunderground v.1.15,2013-03-28 01:30:00,
2013-03-27 20:35:00,44.3,32.5,30.21,East,96,0.0,-999.0,63,0.00,,,0.00,Wunderground v.1.15,2013-03-28 01:35:00,
2013-03-27 20:40:00,44.1,32.7,30.21,East,96,0.0,-999.0,64,0.00,,,0.00,Wunderground v.1.15,2013-03-28 01:40:00,
2013-03-27 20:45:00,43.9,32.5,30.21,SSE,148,0.0,-999.0,64,0.00,,,0.00,Wunderground v.1.15,2013-03-28 01:45:00,
2013-03-27 20:50:00,43.7,32.7,30.21,ESE,115,0.0,-999.0,65,0.00,,,0.00,Wunderground v.1.15,2013-03-28 01:50:00,
2013-03-27 20:55:00,43.5,32.5,30.21,East,95,0.0,-999.0,65,0.00,,,0.00,Wunderground v.1.15,2013-03-28 01:55:00,
2013-03-27 21:00:00,43.3,32.7,30.21,SE,128,2.0,-999.0,66,0.00,,,0.00,Wunderground v.1.15,2013-03-28 02:00:00,
2013-03-27 21:05:00,43.1,32.5,30.22,ESE,123,0.0,-999.0,66,0.00,,,0.00,Wunderground v.1.15,2013-03-28 02:05:00,
2013-03-27 21:10:00,42.9,32.7,30.22,East,82,2.0,-999.0,67,0.00,,,0.00,Wunderground v.1.15,2013-03-28 02:10:00,
2013-03-27 21:15:00,42.8,33.0,30.22,ESE,122,0.0,-999.0,68,0.00,,,0.00,Wunderground v.1.15,2013-03-28 02:15:00,
2013-03-27 21:20:00,42.6,32.8,30.22,ESE,114,1.0,-999.0,68,0.00,,,0.00,Wunderground v.1.15,2013-03-28 02:20:00,
2013-03-27 21:25:00,42.3,32.8,30.22,ENE,77,0.0,-999.0,69,0.00,,,0.00,Wunderground v.1.15,2013-03-28 02:25:00,
2013-03-27 21:30:00,42.0,32.9,30.22,SSE,151,1.0,-999.0,70,0.00,,,0.00,Wunderground v.1.15,2013-03-28 02:30:00,
2013-03-27 21:35:00,41.7,32.6,30.22,SE,129,1.0,-999.0,70,0.00,,,0.00,Wunderground v.1.15,2013-03-28 02:35:00,
2013-03-27 21:40:00,41.4,32.7,30.23,SSE,147,0.0,-999.0,71,0.00,,,0.00,Wunderground v.1.15,2013-03-28 02:40:00,
2013-03-27 21:45:00,41.2,32.5,30.23,ENE,70,1.0,-999.0,71,0.00,,,0.00,Wunderground v.1.15,2013-03-28 02:45:00,
2013-03-27 21:50:00,41.1,32.8,30.23,ESE,104,1.0,-999.0,72,0.00,,,0.00,Wunderground v.1.15,2013-03-28 02:50:00,
2013-03-27 21:55:00,40.9,32.6,30.24,SE,124,0.0,-999.0,72,0.00,,,0.00,Wunderground v.1.15,2013-03-28 02:55:00,
2013-03-27 22:00:00,40.7,32.7,30.24,ESE,115,1.0,-999.0,73,0.00,,,0.00,Wunderground v.1.15,2013-03-28 03:00:00,
2013-03-27 22:05:00,40.5,32.5,30.24,ESE,108,0.0,-999.0,73,0.00,,,0.00,Wunderground v.1.15,2013-03-28 03:05:00,
2013-03-27 22:10:00,40.4,32.4,30.24,ESE,120,0.0,-999.0,73,0.00,,,0.00,Wunderground v.1.15,2013-03-28 03:10:00,
2013-03-27 22:15:00,40.1,32.5,30.24,SSE,150,0.0,-999.0,74,0.00,,,0.00,Wunderground v.1.15,2013-03-28 03:15:00,
2013-03-27 22:20:00,39.9,32.3,30.24,SE,137,0.0,-999.0,74,0.00,,,0.00,Wunderground v.1.15,2013-03-28 03:20:00,
2013-03-27 22:25:00,39.7,32.4,30.24,SE,136,0.0,-999.0,75,0.00,,,0.00,Wunderground v.1.15,2013-03-28 03:25:00,
2013-03-27 22:30:00,39.6,32.3,30.24,East,89,0.0,-999.0,75,0.00,,,0.00,Wunderground v.1.15,2013-03-28 03:30:00,
2013-03-27 22:35:00,39.5,32.2,30.24,ESE,105,1.0,-999.0,75,0.00,,,0.00,Wunderground v.1.15,2013-03-28 03:35:00,
2013-03-27 22:40:00,39.5,32.2,30.24,East,101,0.0,-999.0,75,0.00,,,0.00,Wunderground v.1.15,2013-03-28 03:40:00,
2013-03-27 22:45:00,39.5,32.2,30.24,ESE,104,0.0,-999.0,75,0.00,,,0.00,Wunderground v.1.15,2013-03-28 03:45:00,
2013-03-27 22:50:00,39.4,32.1,30.24,ESE,108,0.0,-999.0,75,0.00,,,0.00,Wunderground v.1.15,2013-03-28 03:50:00,
2013-03-27 22:55:00,39.3,32.0,30.24,ESE,108,0.0,-999.0,75,0.00,,,0.00,Wunderground v.1.15,2013-03-28 03:55:00,
2013-03-27 23:00:00,39.2,31.9,30.24,ESE,116,0.0,-999.0,75,0.00,,,0.00,Wunderground v.1.15,2013-03-28 04:00:00,
2013-03-27 23:05:00,39.1,32.2,30.24,ESE,104,0.0,-999.0,76,0.00,,,0.00,Wunderground v.1.15,2013-03-28 04:05:00,
2013-03-27 23:10:00,38.9,32.0,30.24,ESE,118,0.0,-999.0,76,0.00,,,0.00,Wunderground v.1.15,2013-03-28 04:10:00,
2013-03-27 23:15:00,38.7,31.8,30.25,ESE,119,0.0,-999.0,76,0.00,,,0.00,Wunderground v.1.15,2013-03-28 04:15:00,
2013-03-27 23:20:00,38.5,31.9,30.24,ESE,118,0.0,-999.0,77,0.00,,,0.00,Wunderground v.1.15,2013-03-28 04:20:00,
2013-03-27 23:25:00,38.3,31.7,30.24,ESE,118,0.0,-999.0,77,0.00,,,0.00,Wunderground v.1.15,2013-03-28 04:25:00,
2013-03-27 23:30:00,38.0,31.7,30.24,ESE,117,0.0,-999.0,78,0.00,,,0.00,Wunderground v.1.15,2013-03-28 04:30:00,
2013-03-27 23:35:00,37.7,31.8,30.25,ESE,118,0.0,-999.0,79,0.00,,,0.00,Wunderground v.1.15,2013-03-28 04:35:00,
2013-03-27 23:40:00,37.4,31.5,30.25,ESE,118,0.0,-999.0,79,0.00,,,0.00,Wunderground v.1.15,2013-03-28 04:40:00,
2013-03-27 23:45:00,37.0,31.4,30.25,ESE,118,0.0,-999.0,80,0.00,,,0.00,Wunderground v.1.15,2013-03-28 04:45:00,
2013-03-27 23:50:00,36.6,31.0,30.25,ESE,118,0.0,-999.0,80,0.00,,,0.00,Wunderground v.1.15,2013-03-28 04:50:00,
2013-03-27 23:55:00,36.3,31.0,30.25,ESE,119,0.0,-999.0,81,0.00,,,0.00,Wunderground v.1.15,2013-03-28 04:55:00,